OBJECT L, 58472

Orbit data source: Space-Track

You're viewing an Uncataloged Satellite

Recently launched and/or uncataloged satellites may have evolving metadata. Metadata may include but not limited to: Owner, Maufacturer, Bus, Motor, and Mission.

OBJECT L, 58472 is a satellite in SSO that was launched on Fri, 01 Dec 2023 UTC via an FALCON 9 launch vehicle from the Air Force Western Test Range (AFWTR). Unknown objects in Earth's orbit typically refer to objects detected orbiting the Earth but have not yet been identified or cataloged. These objects could be anything from previously untracked satellites, spent rocket stages, debris from satellite collisions, or even natural meteoroids temporarily captured by Earth's gravity.

Loading next visibility...
Identifier
58472, 2023-185L
Orbit
SSO
Last TLE update
9 hours ago
Origin
Manufacturer
UC Dublin
Mission
Operational Amateur Science
Bus & Motor
CUBESAT 2U, Unknown motor
Mass
2 kg wet, 2 kg dry
Launch date (UTC)
2023-12-01 (1 year ago)
Launch vehicle
FALCON 9
Launch site
Air Force Western Test Range (AFWTR)
Object type
Unknown
Shape & HBR
Box, 0.2 m
Radar Cross Section
0.025 m², Medium (>0.1 m² and < 1m²)

Expand to show TLE details & history

TLE from 9 hours ago
0 OBJECT L
1 58472U 23185L   25131.22390939  .00084359  00000-0  96704-3 0  9992
2 58472  97.3722 206.9215 0007850 184.8317 175.2866 15.61787322 80572
Epoch: 2025-05-11T05:22Z
Definitive object data (Epoch: 2025-05-11T05:22:25.771Z)
Latitude
-0.00005°
Longitude
-102.94029°
Altitude
390.932 km
Speed
7.673 km/s
True Right ascension
13h 47m 41s
True Declination
0° 00' 00"
Sunlit
Object was in full shadow at TLE epoch
Visualization TLE readout
Latitude
-34.45337°
Longitude
72.36868°
Altitude
390.898 km
Speed
7.677 km/s
Apparent Right ascension
05h 19m 16s
Apparent Declination
-61° 16' 58"
Sunlit
Object is in daylight
Visualization observer readout
Local Sidereal Time
22:16:37
Azimuth
141.871° SSE
Elevation
-41.47°
Doppler factor
1
Orbital elements
Apogee altitude
384.708 km
Perigee altitude
374.098 km
Semi-major axis
6,757.54 km
Eccentricity
0.000785
Inclination
97.3722°
RAAN
206.9215°
Arg. of periapsis
184.8317°
True anomaly
175.29398°
Mean anomaly
175.2866°
Eccentric anomaly
175.29029°
Mean motion
3.90715 °/min
BSTAR
0.00096704
Orbital period
92.14 mins
Loading maneuver chart data...
Loading SW <> Apogee altitude chart data...
Loading historical data...
Loading historical data...
Loading historical data...
Loading historical data...
Loading historical data...
Loading historical data...
Loading historical data...

OBJECT L Visibility forecast

Observer location: undefined°, undefined°

Span
Click to sort rows by Start time (UTC) header in descending order
Start Az.
Max El. time (UTC)
Max El. Az.
Max El.
End time (UTC)
End Az.
5 mins2025-05-11 18:13:40.043Z353.65° N2025-05-11 18:15:40.043Z307.963° NW31.079°2025-05-11 18:18:40.043Z215.827° SW
|